PIMOHWEATHER Station Historical Data
Daily Summary for February 22, 2020 Units:  Metric    English   Both
Daily Weekly Monthly Yearly
  High: Low: Average:
Temperature: 33.0 °C 24.0 °C 27.5 °C
Dew Point: 21.0 °C 18.0 °C 19.7 °C
Humidity: 79% 47% 63%
Wind Speed: 35km/h 0km/h 11.9km/h
Wind Gust: 44km/h - -
Wind- - ENE
Pressure: 1018.6 hPa 1013.2 hPa -
Precipitation: 0.00 mm    
 
 
Tabular Data for February 22, 2020
Time Temperature Dew Point Pressure Wind Wind Speed Wind Gust Humidity Rainfall Rate (Hourly) solar
00:04 25.0 °C 21.0 °C 1017.3 hPa NNE 7 km/h 8 km/h 74% 0.00 mm 0.00 W/m2
00:09 25.0 °C 21.0 °C 1017.3 hPa North 5 km/h 8 km/h 74% 0.00 mm 0.00 W/m2
00:14 25.0 °C 21.0 °C 1017.3 hPa North 5 km/h 8 km/h 74% 0.00 mm 0.00 W/m2
00:19 25.0 °C 20.0 °C 1017.3 hPa NNE 6 km/h 8 km/h 74% 0.00 mm 0.00 W/m2
00:24 25.0 °C 20.0 °C 1017.3 hPa North 4 km/h 4 km/h 74% 0.00 mm 0.00 W/m2
00:29 25.0 °C 20.0 °C 1017.3 hPa NNW 9 km/h 12 km/h 74% 0.00 mm 0.00 W/m2
00:34 25.0 °C 20.0 °C 1017.3 hPa North 5 km/h 8 km/h 74% 0.00 mm 0.00 W/m2
00:39 25.0 °C 20.0 °C 1017.3 hPa NNE 8 km/h 16 km/h 74% 0.00 mm 0.00 W/m2
00:44 25.0 °C 20.0 °C 1017.3 hPa NE 6 km/h 8 km/h 74% 0.00 mm 0.00 W/m2
00:49 25.0 °C 20.0 °C 1016.9 hPa NNE 6 km/h 8 km/h 74% 0.00 mm 0.00 W/m2
00:54 25.0 °C 20.0 °C 1016.9 hPa NNE 7 km/h 8 km/h 74% 0.00 mm 0.00 W/m2
00:59 25.0 °C 20.0 °C 1016.9 hPa NNE 5 km/h 8 km/h 74% 0.00 mm 0.00 W/m2
01:04 25.0 °C 20.0 °C 1016.9 hPa North 6 km/h 8 km/h 74% 0.00 mm 0.00 W/m2
01:09 25.0 °C 20.0 °C 1016.9 hPa NNE 8 km/h 12 km/h 74% 0.00 mm 0.00 W/m2
01:14 25.0 °C 20.0 °C 1016.6 hPa NNE 6 km/h 8 km/h 73% 0.00 mm 0.00 W/m2
01:19 25.0 °C 20.0 °C 1016.6 hPa North 11 km/h 12 km/h 73% 0.00 mm 0.00 W/m2
01:24 25.0 °C 20.0 °C 1016.6 hPa North 6 km/h 8 km/h 73% 0.00 mm 0.00 W/m2
01:29 25.0 °C 20.0 °C 1016.6 hPa North 8 km/h 8 km/h 73% 0.00 mm 0.00 W/m2
01:34 25.0 °C 20.0 °C 1016.6 hPa NNE 10 km/h 12 km/h 73% 0.00 mm 0.00 W/m2
01:39 25.0 °C 20.0 °C 1016.6 hPa North 6 km/h 8 km/h 73% 0.00 mm 0.00 W/m2
01:44 25.0 °C 20.0 °C 1016.6 hPa North 5 km/h 8 km/h 74% 0.00 mm 0.00 W/m2
01:49 25.0 °C 20.0 °C 1016.3 hPa NNE 5 km/h 8 km/h 74% 0.00 mm 0.00 W/m2
01:54 25.0 °C 20.0 °C 1016.3 hPa NNE 9 km/h 12 km/h 73% 0.00 mm 0.00 W/m2
01:59 25.0 °C 20.0 °C 1016.3 hPa NNE 5 km/h 8 km/h 73% 0.00 mm 0.00 W/m2
02:04 25.0 °C 20.0 °C 1016.3 hPa NNE 8 km/h 8 km/h 73% 0.00 mm 0.00 W/m2
02:09 25.0 °C 20.0 °C 1016.3 hPa NNE 8 km/h 8 km/h 73% 0.00 mm 0.00 W/m2
02:14 25.0 °C 20.0 °C 1016.6 hPa NNE 9 km/h 12 km/h 73% 0.00 mm 0.00 W/m2
02:19 25.0 °C 20.0 °C 1016.6 hPa NNE 6 km/h 8 km/h 73% 0.00 mm 0.00 W/m2
02:24 25.0 °C 20.0 °C 1016.3 hPa NNE 5 km/h 8 km/h 73% 0.00 mm 0.00 W/m2
02:29 25.0 °C 20.0 °C 1016.3 hPa North 5 km/h 8 km/h 73% 0.00 mm 0.00 W/m2
02:34 25.0 °C 20.0 °C 1016.3 hPa North 5 km/h 8 km/h 73% 0.00 mm 0.00 W/m2
02:39 25.0 °C 20.0 °C 1016.3 hPa North 5 km/h 8 km/h 73% 0.00 mm 0.00 W/m2
02:44 25.0 °C 20.0 °C 1016.3 hPa NNE 6 km/h 8 km/h 73% 0.00 mm 0.00 W/m2
02:49 25.0 °C 20.0 °C 1016.3 hPa NNE 8 km/h 12 km/h 73% 0.00 mm 0.00 W/m2
02:54 25.0 °C 20.0 °C 1016.3 hPa NNE 11 km/h 12 km/h 73% 0.00 mm 0.00 W/m2
02:59 25.0 °C 20.0 °C 1016.3 hPa NNE 8 km/h 12 km/h 73% 0.00 mm 0.00 W/m2
03:04 25.0 °C 20.0 °C 1016.3 hPa NNE 10 km/h 12 km/h 73% 0.00 mm 0.00 W/m2
03:09 25.0 °C 20.0 °C 1015.9 hPa NNE 6 km/h 8 km/h 73% 0.00 mm 0.00 W/m2
03:14 25.0 °C 20.0 °C 1015.9 hPa NNE 5 km/h 8 km/h 74% 0.00 mm 0.00 W/m2
03:19 25.0 °C 20.0 °C 1015.9 hPa NNE 3 km/h 4 km/h 74% 0.00 mm 0.00 W/m2
03:24 25.0 °C 20.0 °C 1015.9 hPa NNE 5 km/h 8 km/h 74% 0.00 mm 0.00 W/m2
03:29 25.0 °C 20.0 °C 1016.3 hPa NNE 4 km/h 4 km/h 74% 0.00 mm 0.00 W/m2
03:34 25.0 °C 20.0 °C 1015.9 hPa NNE 3 km/h 4 km/h 74% 0.00 mm 0.00 W/m2
03:39 25.0 °C 20.0 °C 1015.9 hPa NNE 5 km/h 8 km/h 74% 0.00 mm 0.00 W/m2
03:44 25.0 °C 20.0 °C 1015.9 hPa NNE 3 km/h 4 km/h 74% 0.00 mm 0.00 W/m2
03:49 25.0 °C 20.0 °C 1015.9 hPa North 3 km/h 4 km/h 75% 0.00 mm 0.00 W/m2
03:54 25.0 °C 20.0 °C 1015.9 hPa NNE 4 km/h 4 km/h 75% 0.00 mm 0.00 W/m2
03:59 25.0 °C 20.0 °C 1015.9 hPa North 2 km/h 4 km/h 75% 0.00 mm 0.00 W/m2
04:04 25.0 °C 20.0 °C 1015.9 hPa NNE 4 km/h 4 km/h 75% 0.00 mm 0.00 W/m2
04:09 25.0 °C 20.0 °C 1015.9 hPa NNE 2 km/h 4 km/h 75% 0.00 mm 0.00 W/m2
04:14 24.0 °C 20.0 °C 1015.9 hPa Calm     75% 0.00 mm 0.00 W/m2
04:19 24.0 °C 20.0 °C 1015.9 hPa North 4 km/h 4 km/h 76% 0.00 mm 0.00 W/m2
04:24 24.0 °C 20.0 °C 1015.9 hPa NNE 6 km/h 8 km/h 76% 0.00 mm 0.00 W/m2
04:29 24.0 °C 20.0 °C 1015.9 hPa NNE 5 km/h 8 km/h 75% 0.00 mm 0.00 W/m2
04:34 24.0 °C 20.0 °C 1016.3 hPa North 8 km/h 8 km/h 75% 0.00 mm 0.00 W/m2
04:39 24.0 °C 20.0 °C 1016.3 hPa NNE 5 km/h 8 km/h 75% 0.00 mm 0.00 W/m2
04:44 24.0 °C 20.0 °C 1015.9 hPa NNE 6 km/h 8 km/h 75% 0.00 mm 0.00 W/m2
04:49 24.0 °C 20.0 °C 1016.3 hPa NNE 7 km/h 8 km/h 75% 0.00 mm 0.00 W/m2
04:54 24.0 °C 20.0 °C 1016.3 hPa NNE 3 km/h 4 km/h 75% 0.00 mm 0.00 W/m2
04:59 24.0 °C 20.0 °C 1016.3 hPa NNE 5 km/h 8 km/h 75% 0.00 mm 0.00 W/m2
05:04 24.0 °C 20.0 °C 1016.3 hPa Calm   4 km/h 76% 0.00 mm 0.00 W/m2
05:09 24.0 °C 20.0 °C 1016.3 hPa North 1 km/h 4 km/h 76% 0.00 mm 0.00 W/m2
05:14 24.0 °C 20.0 °C 1016.3 hPa NNE 3 km/h 4 km/h 76% 0.00 mm 0.00 W/m2
05:19 24.0 °C 20.0 °C 1016.6 hPa Calm   4 km/h 76% 0.00 mm 0.00 W/m2
05:24 24.0 °C 20.0 °C 1016.6 hPa Calm     76% 0.00 mm 0.00 W/m2
05:29 24.0 °C 20.0 °C 1016.6 hPa NNW 4 km/h 4 km/h 76% 0.00 mm 0.00 W/m2
05:34 24.0 °C 20.0 °C 1016.6 hPa NNW 4 km/h 4 km/h 76% 0.00 mm 0.00 W/m2
05:39 24.0 °C 20.0 °C 1016.6 hPa WNW 3 km/h 4 km/h 76% 0.00 mm 0.00 W/m2
05:44 24.0 °C 20.0 °C 1016.6 hPa Calm   4 km/h 77% 0.00 mm 0.00 W/m2
05:49 24.0 °C 20.0 °C 1016.6 hPa NE 1 km/h 4 km/h 77% 0.00 mm 0.00 W/m2
05:54 24.0 °C 20.0 °C 1016.9 hPa Calm     77% 0.00 mm 0.00 W/m2
05:59 24.0 °C 20.0 °C 1016.9 hPa Calm     77% 0.00 mm 0.00 W/m2
06:04 24.0 °C 20.0 °C 1016.9 hPa NNE 4 km/h 4 km/h 77% 0.00 mm 0.00 W/m2
06:09 24.0 °C 20.0 °C 1016.9 hPa North 4 km/h 4 km/h 77% 0.00 mm 0.00 W/m2
06:14 24.0 °C 20.0 °C 1016.9 hPa NNW 5 km/h 8 km/h 76% 0.00 mm 0.00 W/m2
06:19 24.0 °C 20.0 °C 1017.3 hPa NNW 5 km/h 8 km/h 77% 0.00 mm 2.26 W/m2
06:24 24.0 °C 20.0 °C 1017.3 hPa NNW 5 km/h 8 km/h 77% 0.00 mm 5.45 W/m2
06:29 24.0 °C 20.0 °C 1017.3 hPa North 5 km/h 8 km/h 78% 0.00 mm 10.02 W/m2
06:34 24.0 °C 20.0 °C 1017.3 hPa North 5 km/h 8 km/h 78% 0.00 mm 15.96 W/m2
06:39 24.0 °C 20.0 °C 1017.3 hPa North 5 km/h 8 km/h 78% 0.00 mm 20.57 W/m2
06:44 24.0 °C 20.0 °C 1017.3 hPa North 5 km/h 8 km/h 78% 0.00 mm 25.71 W/m2
06:49 24.0 °C 20.0 °C 1017.3 hPa North 9 km/h 16 km/h 78% 0.00 mm 29.77 W/m2
06:54 24.0 °C 20.0 °C 1017.3 hPa North 11 km/h 12 km/h 79% 0.00 mm 33.75 W/m2
06:59 24.0 °C 20.0 °C 1017.3 hPa North 6 km/h 8 km/h 79% 0.00 mm 37.45 W/m2
07:04 24.0 °C 20.0 °C 1017.6 hPa North 5 km/h 8 km/h 78% 0.00 mm 41.40 W/m2
07:09 24.0 °C 20.0 °C 1017.6 hPa NNE 8 km/h 8 km/h 78% 0.00 mm 49.54 W/m2
07:14 24.0 °C 20.0 °C 1017.6 hPa NNE 8 km/h 8 km/h 78% 0.00 mm 54.77 W/m2
07:19 25.0 °C 20.0 °C 1017.6 hPa North 6 km/h 8 km/h 77% 0.00 mm 61.40 W/m2
07:24 25.0 °C 20.0 °C 1017.6 hPa NNW 8 km/h 8 km/h 76% 0.00 mm 69.20 W/m2
07:29 25.0 °C 20.0 °C 1017.6 hPa North 9 km/h 12 km/h 75% 0.00 mm 79.44 W/m2
07:34 25.0 °C 20.0 °C 1017.6 hPa NNW 10 km/h 12 km/h 74% 0.00 mm 87.34 W/m2
07:39 25.0 °C 20.0 °C 1018.0 hPa NNW 12 km/h 20 km/h 74% 0.00 mm 95.69 W/m2
07:44 25.0 °C 20.0 °C 1018.0 hPa North 10 km/h 12 km/h 73% 0.00 mm 104.47 W/m2
07:49 26.0 °C 20.0 °C 1018.0 hPa NW 13 km/h 16 km/h 73% 0.00 mm 121.77 W/m2
07:54 26.0 °C 20.0 °C 1018.0 hPa North 15 km/h 20 km/h 72% 0.00 mm 139.21 W/m2
07:59 26.0 °C 20.0 °C 1018.0 hPa North 13 km/h 16 km/h 71% 0.00 mm 151.59 W/m2
08:04 27.0 °C 21.0 °C 1018.3 hPa NNE 10 km/h 12 km/h 70% 0.00 mm 177.26 W/m2
08:09 27.0 °C 21.0 °C 1018.0 hPa WNW 6 km/h 8 km/h 68% 0.00 mm 172.24 W/m2
08:14 27.0 °C 21.0 °C 1018.3 hPa NNE 4 km/h 8 km/h 68% 0.00 mm 156.83 W/m2
08:19 27.0 °C 21.0 °C 1018.3 hPa NNE 10 km/h 12 km/h 68% 0.00 mm 173.61 W/m2
08:24 28.0 °C 21.0 °C 1018.3 hPa North 6 km/h 8 km/h 67% 0.00 mm 178.75 W/m2
08:29 28.0 °C 21.0 °C 1018.3 hPa NNE 8 km/h 12 km/h 66% 0.00 mm 195.34 W/m2
08:34 28.0 °C 21.0 °C 1018.3 hPa North 13 km/h 16 km/h 66% 0.00 mm 201.87 W/m2
08:39 28.0 °C 21.0 °C 1018.3 hPa North 10 km/h 12 km/h 65% 0.00 mm 207.80 W/m2
08:44 28.0 °C 21.0 °C 1018.3 hPa NNE 13 km/h 16 km/h 65% 0.00 mm 221.91 W/m2
08:49 28.0 °C 21.0 °C 1018.3 hPa NNE 10 km/h 12 km/h 64% 0.00 mm 230.31 W/m2
08:54 28.0 °C 21.0 °C 1018.3 hPa NNE 12 km/h 16 km/h 64% 0.00 mm 255.97 W/m2
08:59 29.0 °C 21.0 °C 1018.3 hPa NNE 10 km/h 12 km/h 64% 0.00 mm 287.44 W/m2
09:04 28.0 °C 21.0 °C 1018.6 hPa NNW 13 km/h 16 km/h 65% 0.00 mm 286.65 W/m2
09:09 28.0 °C 21.0 °C 1018.6 hPa North 18 km/h 20 km/h 66% 0.00 mm 301.90 W/m2
09:14 28.0 °C 21.0 °C 1018.3 hPa North 17 km/h 20 km/h 66% 0.00 mm 324.19 W/m2
09:19 29.0 °C 21.0 °C 1018.3 hPa North 14 km/h 16 km/h 65% 0.00 mm 344.20 W/m2
09:24 29.0 °C 21.0 °C 1018.6 hPa NE 17 km/h 24 km/h 61% 0.00 mm 354.38 W/m2
09:29 29.0 °C 21.0 °C 1018.6 hPa North 8 km/h 12 km/h 61% 0.00 mm 330.77 W/m2
09:34 29.0 °C 21.0 °C 1018.6 hPa NE 15 km/h 20 km/h 61% 0.00 mm 357.58 W/m2
09:39 29.0 °C 20.0 °C 1018.6 hPa NNE 15 km/h 20 km/h 60% 0.00 mm 354.38 W/m2
09:44 29.0 °C 20.0 °C 1018.3 hPa NE 14 km/h 16 km/h 61% 0.00 mm 381.61 W/m2
09:49 29.0 °C 20.0 °C 1018.6 hPa North 19 km/h 20 km/h 60% 0.00 mm 384.13 W/m2
09:54 29.0 °C 20.0 °C 1018.6 hPa NNE 19 km/h 24 km/h 60% 0.00 mm 377.84 W/m2
09:59 29.0 °C 20.0 °C 1018.6 hPa NNE 23 km/h 28 km/h 58% 0.00 mm 353.23 W/m2
10:04 30.0 °C 20.0 °C 1018.3 hPa ENE 17 km/h 24 km/h 57% 0.00 mm 354.40 W/m2
10:09 30.0 °C 20.0 °C 1018.3 hPa NNE 14 km/h 16 km/h 56% 0.00 mm 359.79 W/m2
10:14 31.0 °C 21.0 °C 1018.3 hPa NE 18 km/h 24 km/h 56% 0.00 mm 361.89 W/m2
10:19 31.0 °C 20.0 °C 1018.3 hPa NE 13 km/h 16 km/h 55% 0.00 mm 374.03 W/m2
10:24 31.0 °C 20.0 °C 1018.3 hPa NE 12 km/h 16 km/h 55% 0.00 mm 369.18 W/m2
10:29 31.0 °C 20.0 °C 1018.3 hPa NE 15 km/h 20 km/h 54% 0.00 mm 379.63 W/m2
10:34 30.0 °C 20.0 °C 1018.3 hPa North 14 km/h 16 km/h 54% 0.00 mm 371.68 W/m2
10:39 30.0 °C 20.0 °C 1018.3 hPa West 10 km/h 12 km/h 54% 0.00 mm 381.86 W/m2
10:44 31.0 °C 20.0 °C 1018.0 hPa NNE 14 km/h 16 km/h 53% 0.00 mm 392.28 W/m2
10:49 31.0 °C 20.0 °C 1018.0 hPa NNE 14 km/h 16 km/h 52% 0.00 mm 399.67 W/m2
10:54 31.0 °C 20.0 °C 1018.0 hPa NE 13 km/h 16 km/h 51% 0.00 mm 403.02 W/m2
10:59 31.0 °C 20.0 °C 1017.6 hPa NNE 19 km/h 24 km/h 51% 0.00 mm 401.53 W/m2
11:04 31.0 °C 19.0 °C 1017.6 hPa NE 14 km/h 20 km/h 50% 0.00 mm 401.77 W/m2
11:09 32.0 °C 19.0 °C 1017.6 hPa NE 18 km/h 20 km/h 50% 0.00 mm 411.09 W/m2
11:14 32.0 °C 20.0 °C 1017.6 hPa NNE 10 km/h 20 km/h 49% 0.00 mm 415.25 W/m2
11:19 32.0 °C 19.0 °C 1017.6 hPa NNE 13 km/h 16 km/h 50% 0.00 mm 412.64 W/m2
11:24 31.0 °C 19.0 °C 1017.3 hPa WNW 8 km/h 8 km/h 51% 0.00 mm 417.09 W/m2
11:29 32.0 °C 20.0 °C 1017.3 hPa NNE 15 km/h 16 km/h 49% 0.00 mm 420.76 W/m2
11:34 31.0 °C 20.0 °C 1017.3 hPa NNE 15 km/h 20 km/h 50% 0.00 mm 419.78 W/m2
11:39 32.0 °C 20.0 °C 1016.9 hPa NE 14 km/h 16 km/h 49% 0.00 mm 422.96 W/m2
11:44 32.0 °C 20.0 °C 1016.9 hPa ENE 18 km/h 20 km/h 49% 0.00 mm 419.61 W/m2
11:49 32.0 °C 20.0 °C 1016.9 hPa North 21 km/h 28 km/h 49% 0.00 mm 423.74 W/m2
11:54 31.0 °C 20.0 °C 1016.9 hPa North 15 km/h 20 km/h 50% 0.00 mm 418.87 W/m2
11:59 31.0 °C 20.0 °C 1016.6 hPa North 15 km/h 20 km/h 50% 0.00 mm 416.92 W/m2
12:04 31.0 °C 19.0 °C 1016.6 hPa NNE 19 km/h 20 km/h 50% 0.00 mm 420.73 W/m2
12:09 31.0 °C 19.0 °C 1016.6 hPa ENE 10 km/h 12 km/h 50% 0.00 mm 428.71 W/m2
12:14 32.0 °C 20.0 °C 1016.3 hPa North 9 km/h 12 km/h 50% 0.00 mm 435.27 W/m2
12:19 32.0 °C 20.0 °C 1016.3 hPa North 21 km/h 28 km/h 49% 0.00 mm 436.64 W/m2
12:24 31.0 °C 19.0 °C 1015.9 hPa NNW 14 km/h 20 km/h 49% 0.00 mm 434.58 W/m2
12:29 32.0 °C 19.0 °C 1015.9 hPa North 25 km/h 28 km/h 48% 0.00 mm 434.53 W/m2
12:34 32.0 °C 19.0 °C 1015.9 hPa North 14 km/h 20 km/h 49% 0.00 mm 430.96 W/m2
12:39 33.0 °C 20.0 °C 1015.6 hPa NNW 8 km/h 8 km/h 49% 0.00 mm 441.48 W/m2
12:44 32.0 °C 20.0 °C 1015.6 hPa NNW 17 km/h 20 km/h 48% 0.00 mm 442.31 W/m2
12:49 32.0 °C 19.0 °C 1015.6 hPa NNE 12 km/h 16 km/h 48% 0.00 mm 436.69 W/m2
12:53 33.0 °C 20.0 °C 1015.2 hPa NNE 16 km/h 20 km/h 47% 0.00 mm 437.57 W/m2
13:04 31.0 °C 19.0 °C 1014.9 hPa North 15 km/h 20 km/h 49% 0.00 mm 431.96 W/m2
13:09 32.0 °C 20.0 °C 1014.9 hPa North 31 km/h 40 km/h 50% 0.00 mm 432.87 W/m2
13:14 32.0 °C 20.0 °C 1014.9 hPa North 33 km/h 36 km/h 49% 0.00 mm 429.32 W/m2
13:19 32.0 °C 20.0 °C 1014.6 hPa North 23 km/h 28 km/h 49% 0.00 mm 432.53 W/m2
13:24 32.0 °C 20.0 °C 1014.6 hPa North 25 km/h 28 km/h 49% 0.00 mm 436.03 W/m2
13:29 32.0 °C 20.0 °C 1014.6 hPa NNE 20 km/h 28 km/h 48% 0.00 mm 435.02 W/m2
13:34 33.0 °C 20.0 °C 1014.6 hPa North 25 km/h 32 km/h 49% 0.00 mm 434.36 W/m2
13:39 33.0 °C 20.0 °C 1014.2 hPa NNE 23 km/h 28 km/h 49% 0.00 mm 439.13 W/m2
13:44 32.0 °C 20.0 °C 1014.2 hPa North 16 km/h 24 km/h 49% 0.00 mm 443.07 W/m2
13:49 33.0 °C 20.0 °C 1014.2 hPa NNE 20 km/h 24 km/h 49% 0.00 mm 443.76 W/m2
13:54 33.0 °C 21.0 °C 1013.9 hPa NNE 21 km/h 24 km/h 49% 0.00 mm 438.40 W/m2
13:59 33.0 °C 21.0 °C 1013.9 hPa NNE 25 km/h 32 km/h 50% 0.00 mm 434.44 W/m2
14:04 33.0 °C 21.0 °C 1013.9 hPa NNE 25 km/h 28 km/h 51% 0.00 mm 431.30 W/m2
14:09 33.0 °C 21.0 °C 1013.6 hPa NNE 20 km/h 28 km/h 51% 0.00 mm 431.94 W/m2
14:14 33.0 °C 21.0 °C 1013.6 hPa NNE 21 km/h 28 km/h 50% 0.00 mm 434.97 W/m2
14:19 33.0 °C 21.0 °C 1013.6 hPa NNE 17 km/h 24 km/h 50% 0.00 mm 440.43 W/m2
14:24 32.0 °C 21.0 °C 1013.6 hPa NNE 21 km/h 28 km/h 51% 0.00 mm 435.83 W/m2
14:29 32.0 °C 21.0 °C 1013.2 hPa North 21 km/h 28 km/h 52% 0.00 mm 434.12 W/m2
14:34 32.0 °C 21.0 °C 1013.2 hPa NNE 22 km/h 32 km/h 52% 0.00 mm 420.91 W/m2
14:39 32.0 °C 21.0 °C 1013.2 hPa North 22 km/h 28 km/h 51% 0.00 mm 429.81 W/m2
14:44 32.0 °C 21.0 °C 1013.2 hPa NNE 29 km/h 32 km/h 52% 0.00 mm 422.28 W/m2
14:49 32.0 °C 21.0 °C 1013.2 hPa NNE 23 km/h 32 km/h 51% 0.00 mm 424.75 W/m2
14:54 32.0 °C 21.0 °C 1013.2 hPa NNE 25 km/h 36 km/h 53% 0.00 mm 430.91 W/m2
14:59 32.0 °C 21.0 °C 1013.2 hPa NE 20 km/h 28 km/h 53% 0.00 mm 409.60 W/m2
15:04 32.0 °C 21.0 °C 1013.2 hPa NNE 22 km/h 32 km/h 52% 0.00 mm 401.97 W/m2
15:09 32.0 °C 21.0 °C 1013.2 hPa NNE 22 km/h 28 km/h 52% 0.00 mm 399.28 W/m2
15:14 32.0 °C 21.0 °C 1013.2 hPa NE 28 km/h 44 km/h 52% 0.00 mm 392.99 W/m2
15:19 31.0 °C 20.0 °C 1013.2 hPa NNE 35 km/h 36 km/h 52% 0.00 mm 392.69 W/m2
15:24 32.0 °C 21.0 °C 1013.2 hPa NNE 29 km/h 40 km/h 53% 0.00 mm 380.88 W/m2
15:29 31.0 °C 20.0 °C 1013.2 hPa NNE 31 km/h 36 km/h 53% 0.00 mm 371.90 W/m2
15:34 31.0 °C 20.0 °C 1013.2 hPa NE 27 km/h 36 km/h 53% 0.00 mm 365.27 W/m2
15:39 32.0 °C 20.0 °C 1013.2 hPa NNW 25 km/h 32 km/h 52% 0.00 mm 360.20 W/m2
15:44 32.0 °C 20.0 °C 1013.2 hPa NE 17 km/h 20 km/h 53% 0.00 mm 352.13 W/m2
15:49 31.0 °C 20.0 °C 1013.6 hPa NNE 32 km/h 40 km/h 52% 0.00 mm 350.83 W/m2
15:54 31.0 °C 20.0 °C 1013.6 hPa NNE 25 km/h 36 km/h 53% 0.00 mm 335.12 W/m2
15:59 31.0 °C 20.0 °C 1013.6 hPa North 22 km/h 24 km/h 53% 0.00 mm 335.49 W/m2
16:04 31.0 °C 20.0 °C 1013.6 hPa NNE 27 km/h 32 km/h 53% 0.00 mm 332.55 W/m2
16:09 31.0 °C 20.0 °C 1013.6 hPa NNE 27 km/h 36 km/h 53% 0.00 mm 321.79 W/m2
16:14 30.0 °C 20.0 °C 1013.6 hPa NNE 29 km/h 36 km/h 54% 0.00 mm 309.09 W/m2
16:19 31.0 °C 20.0 °C 1013.6 hPa NNE 30 km/h 36 km/h 53% 0.00 mm 300.77 W/m2
16:24 31.0 °C 20.0 °C 1013.6 hPa NE 24 km/h 28 km/h 53% 0.00 mm 289.66 W/m2
16:29 31.0 °C 20.0 °C 1013.6 hPa NNE 23 km/h 28 km/h 53% 0.00 mm 287.49 W/m2
16:34 31.0 °C 20.0 °C 1013.6 hPa NNE 22 km/h 28 km/h 53% 0.00 mm 277.55 W/m2
16:39 31.0 °C 20.0 °C 1013.6 hPa NW 17 km/h 20 km/h 53% 0.00 mm 276.35 W/m2
16:44 31.0 °C 20.0 °C 1013.9 hPa NNE 25 km/h 28 km/h 54% 0.00 mm 258.69 W/m2
16:49 30.0 °C 19.0 °C 1013.9 hPa NNE 27 km/h 32 km/h 54% 0.00 mm 245.92 W/m2
16:54 30.0 °C 20.0 °C 1013.9 hPa NNE 24 km/h 28 km/h 54% 0.00 mm 231.11 W/m2
16:59 30.0 °C 20.0 °C 1013.9 hPa NNE 23 km/h 32 km/h 55% 0.00 mm 213.28 W/m2
17:04 30.0 °C 20.0 °C 1013.9 hPa NNE 24 km/h 32 km/h 55% 0.00 mm 197.49 W/m2
17:09 29.0 °C 19.0 °C 1013.9 hPa NNE 17 km/h 24 km/h 55% 0.00 mm 63.71 W/m2
17:14 29.0 °C 19.0 °C 1014.2 hPa NNE 21 km/h 32 km/h 55% 0.00 mm 57.22 W/m2
17:19 29.0 °C 19.0 °C 1014.2 hPa NE 29 km/h 32 km/h 55% 0.00 mm 51.79 W/m2
17:24 29.0 °C 19.0 °C 1014.2 hPa NNE 23 km/h 28 km/h 55% 0.00 mm 46.24 W/m2
17:29 29.0 °C 19.0 °C 1014.2 hPa NE 28 km/h 36 km/h 56% 0.00 mm 39.97 W/m2
17:34 29.0 °C 19.0 °C 1014.2 hPa NNE 32 km/h 36 km/h 56% 0.00 mm 34.56 W/m2
17:39 29.0 °C 19.0 °C 1014.6 hPa NE 27 km/h 36 km/h 57% 0.00 mm 29.48 W/m2
17:44 28.0 °C 19.0 °C 1014.6 hPa NNE 21 km/h 28 km/h 57% 0.00 mm 24.20 W/m2
17:49 28.0 °C 19.0 °C 1014.6 hPa NNE 22 km/h 24 km/h 57% 0.00 mm 18.65 W/m2
17:54 28.0 °C 19.0 °C 1014.6 hPa NE 20 km/h 20 km/h 57% 0.00 mm 11.70 W/m2
17:59 28.0 °C 19.0 °C 1014.6 hPa NNE 26 km/h 32 km/h 57% 0.00 mm 7.00 W/m2
18:04 28.0 °C 19.0 °C 1014.6 hPa NNE 19 km/h 24 km/h 57% 0.00 mm 3.54 W/m2
18:09 28.0 °C 19.0 °C 1014.6 hPa NNE 24 km/h 28 km/h 57% 0.00 mm 0.47 W/m2
18:14 28.0 °C 18.0 °C 1014.9 hPa NNE 22 km/h 24 km/h 57% 0.00 mm 0.00 W/m2
18:19 28.0 °C 18.0 °C 1014.9 hPa NE 25 km/h 36 km/h 57% 0.00 mm 0.00 W/m2
18:24 28.0 °C 18.0 °C 1014.9 hPa NNE 21 km/h 24 km/h 58% 0.00 mm 0.00 W/m2
18:29 27.0 °C 18.0 °C 1014.9 hPa NNE 17 km/h 24 km/h 58% 0.00 mm 0.00 W/m2
18:34 27.0 °C 18.0 °C 1015.2 hPa NNE 17 km/h 20 km/h 58% 0.00 mm 0.00 W/m2
18:39 27.0 °C 18.0 °C 1015.2 hPa NNE 14 km/h 20 km/h 58% 0.00 mm 0.00 W/m2
18:44 27.0 °C 18.0 °C 1015.2 hPa NNE 15 km/h 20 km/h 58% 0.00 mm 0.00 W/m2
18:49 27.0 °C 18.0 °C 1015.6 hPa NNE 26 km/h 28 km/h 58% 0.00 mm 0.00 W/m2
18:54 27.0 °C 18.0 °C 1015.2 hPa NNE 18 km/h 20 km/h 59% 0.00 mm 0.00 W/m2
18:59 27.0 °C 18.0 °C 1015.6 hPa NNE 18 km/h 24 km/h 59% 0.00 mm 0.00 W/m2
19:04 27.0 °C 18.0 °C 1015.6 hPa NNE 10 km/h 16 km/h 59% 0.00 mm 0.00 W/m2
19:09 27.0 °C 19.0 °C 1015.6 hPa NNE 12 km/h 12 km/h 60% 0.00 mm 0.00 W/m2
19:14 27.0 °C 19.0 °C 1015.6 hPa NNE 13 km/h 16 km/h 60% 0.00 mm 0.00 W/m2
19:19 27.0 °C 19.0 °C 1015.6 hPa NE 14 km/h 16 km/h 61% 0.00 mm 0.00 W/m2
19:24 27.0 °C 19.0 °C 1015.6 hPa ENE 5 km/h 8 km/h 61% 0.00 mm 0.00 W/m2
19:29 27.0 °C 19.0 °C 1015.9 hPa NE 5 km/h 8 km/h 61% 0.00 mm 0.00 W/m2
19:34 27.0 °C 19.0 °C 1015.9 hPa NE 5 km/h 8 km/h 61% 0.00 mm 0.00 W/m2
19:39 27.0 °C 19.0 °C 1015.9 hPa NE 9 km/h 12 km/h 61% 0.00 mm 0.00 W/m2
19:44 27.0 °C 19.0 °C 1015.9 hPa NE 5 km/h 12 km/h 62% 0.00 mm 0.00 W/m2
19:49 27.0 °C 19.0 °C 1015.9 hPa NNE 10 km/h 12 km/h 62% 0.00 mm 0.00 W/m2
19:54 27.0 °C 19.0 °C 1015.9 hPa NE 8 km/h 8 km/h 62% 0.00 mm 0.00 W/m2
19:59 26.0 °C 19.0 °C 1016.3 hPa NE 5 km/h 8 km/h 62% 0.00 mm 0.00 W/m2
20:04 26.0 °C 19.0 °C 1016.3 hPa NE 6 km/h 8 km/h 62% 0.00 mm 0.00 W/m2
20:09 26.0 °C 19.0 °C 1016.3 hPa ENE 5 km/h 8 km/h 62% 0.00 mm 0.00 W/m2
20:14 26.0 °C 19.0 °C 1016.3 hPa NE 6 km/h 8 km/h 62% 0.00 mm 0.00 W/m2
20:19 26.0 °C 19.0 °C 1016.6 hPa NE 9 km/h 12 km/h 62% 0.00 mm 0.00 W/m2
20:24 26.0 °C 18.0 °C 1016.6 hPa NNE 13 km/h 16 km/h 61% 0.00 mm 0.00 W/m2
20:29 26.0 °C 18.0 °C 1016.6 hPa NNE 5 km/h 8 km/h 61% 0.00 mm 0.00 W/m2
20:34 26.0 °C 19.0 °C 1016.9 hPa NE 9 km/h 12 km/h 62% 0.00 mm 0.00 W/m2
20:39 26.0 °C 18.0 °C 1016.9 hPa NNE 5 km/h 8 km/h 61% 0.00 mm 0.00 W/m2
20:44 26.0 °C 18.0 °C 1016.9 hPa ENE 5 km/h 8 km/h 61% 0.00 mm 0.00 W/m2
20:49 26.0 °C 18.0 °C 1016.9 hPa NNE 5 km/h 8 km/h 61% 0.00 mm 0.00 W/m2
20:54 26.0 °C 18.0 °C 1016.6 hPa NNE 4 km/h 4 km/h 60% 0.00 mm 0.00 W/m2
20:59 26.0 °C 18.0 °C 1016.9 hPa NNE 8 km/h 8 km/h 60% 0.00 mm 0.00 W/m2
21:04 26.0 °C 18.0 °C 1016.9 hPa NNE 9 km/h 12 km/h 60% 0.00 mm 0.00 W/m2
21:09 26.0 °C 18.0 °C 1016.9 hPa NNE 7 km/h 8 km/h 60% 0.00 mm 0.00 W/m2
21:14 26.0 °C 18.0 °C 1016.9 hPa NNE 8 km/h 8 km/h 60% 0.00 mm 0.00 W/m2
21:19 26.0 °C 18.0 °C 1016.9 hPa NNE 8 km/h 12 km/h 60% 0.00 mm 0.00 W/m2
21:24 26.0 °C 18.0 °C 1016.9 hPa NNE 11 km/h 12 km/h 60% 0.00 mm 0.00 W/m2
21:29 26.0 °C 18.0 °C 1016.9 hPa NE 6 km/h 8 km/h 61% 0.00 mm 0.00 W/m2
21:34 26.0 °C 18.0 °C 1016.9 hPa NNE 4 km/h 8 km/h 61% 0.00 mm 0.00 W/m2
21:39 26.0 °C 18.0 °C 1016.9 hPa NNE 5 km/h 8 km/h 61% 0.00 mm 0.00 W/m2
21:44 26.0 °C 18.0 °C 1016.9 hPa NNE 4 km/h 8 km/h 62% 0.00 mm 0.00 W/m2
21:49 26.0 °C 18.0 °C 1016.9 hPa NE 2 km/h 4 km/h 63% 0.00 mm 0.00 W/m2
21:54 26.0 °C 18.0 °C 1016.9 hPa NNE 9 km/h 12 km/h 62% 0.00 mm 0.00 W/m2
21:59 26.0 °C 19.0 °C 1017.3 hPa NE 9 km/h 12 km/h 63% 0.00 mm 0.00 W/m2
22:04 26.0 °C 19.0 °C 1017.3 hPa NE 3 km/h 4 km/h 63% 0.00 mm 0.00 W/m2
22:09 26.0 °C 19.0 °C 1017.3 hPa NE 4 km/h 8 km/h 63% 0.00 mm 0.00 W/m2
22:14 26.0 °C 19.0 °C 1017.3 hPa NNE 8 km/h 12 km/h 63% 0.00 mm 0.00 W/m2
22:19 26.0 °C 19.0 °C 1017.3 hPa NNE 9 km/h 12 km/h 64% 0.00 mm 0.00 W/m2
22:24 26.0 °C 19.0 °C 1017.3 hPa NNE 6 km/h 8 km/h 64% 0.00 mm 0.00 W/m2
22:29 26.0 °C 19.0 °C 1017.3 hPa North 8 km/h 8 km/h 64% 0.00 mm 0.00 W/m2
22:34 26.0 °C 18.0 °C 1017.3 hPa North 4 km/h 4 km/h 64% 0.00 mm 0.00 W/m2
22:39 26.0 °C 19.0 °C 1017.3 hPa NNE 6 km/h 8 km/h 65% 0.00 mm 0.00 W/m2
22:44 26.0 °C 19.0 °C 1017.3 hPa NNE 4 km/h 4 km/h 64% 0.00 mm 0.00 W/m2
22:49 26.0 °C 19.0 °C 1017.3 hPa Calm     65% 0.00 mm 0.00 W/m2
22:54 26.0 °C 19.0 °C 1017.6 hPa West 1 km/h 4 km/h 65% 0.00 mm 0.00 W/m2
22:59 26.0 °C 19.0 °C 1016.9 hPa North 2 km/h 4 km/h 66% 0.00 mm 0.00 W/m2
23:04 25.0 °C 19.0 °C 1017.3 hPa NNE 3 km/h 4 km/h 66% 0.00 mm 0.00 W/m2
23:09 25.0 °C 19.0 °C 1017.3 hPa North 3 km/h 4 km/h 67% 0.00 mm 0.00 W/m2
23:14 25.0 °C 19.0 °C 1016.9 hPa West 1 km/h 4 km/h 67% 0.00 mm 0.00 W/m2
23:19 25.0 °C 19.0 °C 1016.9 hPa NW 5 km/h 8 km/h 68% 0.00 mm 0.00 W/m2
23:24 25.0 °C 19.0 °C 1016.9 hPa NNW 7 km/h 8 km/h 68% 0.00 mm 0.00 W/m2
23:29 25.0 °C 19.0 °C 1016.9 hPa North 3 km/h 4 km/h 68% 0.00 mm 0.00 W/m2
23:34 25.0 °C 19.0 °C 1016.9 hPa Calm     68% 0.00 mm 0.00 W/m2
23:39 25.0 °C 19.0 °C 1016.9 hPa North 6 km/h 8 km/h 68% 0.00 mm 0.00 W/m2
23:44 25.0 °C 19.0 °C 1016.9 hPa North 5 km/h 8 km/h 68% 0.00 mm 0.00 W/m2
23:49 25.0 °C 19.0 °C 1016.9 hPa North 6 km/h 8 km/h 68% 0.00 mm 0.00 W/m2
23:54 25.0 °C 19.0 °C 1016.6 hPa NNE 4 km/h 4 km/h 68% 0.00 mm 0.00 W/m2
23:59 25.0 °C 19.0 °C 1016.3 hPa Calm     68% 0.00 mm 0.00 W/m2
PIMOHWEATHER Philippines
Compliments of Weather Underground - 2 mb